User: anonymous   Login
Location: Ferchesar
(52.6477°N, 12.4298°E)
Time: 11:21:58
(UTC+02:00)
Language:

AO-73 - Orbit

View from above orbital plane
View from above orbital plane
View from above satellite
View from above satellite

Ground track
Ground track

The orbit data is extracted from the following two-line orbital elements,

1 39444U 13066AE  21300.86034581  .00000981  00000-0  12457-3 0  9991
2 39444  97.5981 280.8176 0059019  76.9929 283.7866 14.82573309427648
Epoch (UTC): 27 October 2021 20:38:53
Eccentricity: 0.0059019
inclination: 97.5981°
perigee height: 580 km
apogee height: 662 km
right ascension of ascending node: 280.8176°
argument of perigee: 76.9929°
revolutions per day: 14.82573309
mean anomaly at epoch: 283.7866°
orbit number at epoch: 42764

The dashed part of the orbit path shows where the satellite is in the earth's shadow,  

DLR